Showing default

COSMOS 2270, 23001

Orbit data source: Space-Track

COSMOS 2270, 23001 is a payload satellite owned by VKS (CIS) in LEO that was launched on Sat, 12 Feb 1994 UTC via a TSIKLON-3 launch vehicle from the Plesetsk Missile And Space Complex (PKMTR). Payload-class satellites include a variety of spacecraft equipped with specific instruments for various scientific and technological missions. These include communications satellites like Starlink; space stations such as the ISS; scientific satellites like the Hubble; Earth observation satellites from companies like Planet Labs, Umbra, and HawkEye 360; GPS; miniature CubeSats for education and research; and military/defense satellites.

Loading next visibility...
Identifier
23001, 1994-011C
Orbit
LEO
Country
Flag of CISCIS
Related business
Manufacturer
NPO PM
Mission
Defense Communications
Bus & Motor
STRELA-3, Unknown motor
Mass
225 kg wet, 225 kg dry
Launch date (UTC)
1994-02-12 (32 years ago)
Launch vehicle
TSIKLON-3
Launch site
Plesetsk Missile And Space Complex (PKMTR)
Object type
Payload
Rocket body
Debris
Shape & HBR
Cyl, 0.8 m
Radar Cross Section
1.257 m², Large (>1 m²)

Expand to show TLE details & history
Last TLE update: 9 hours ago

TLE from 9 hours ago
0 COSMOS 2270
1 23001U 94011C   26035.50150610  .00000001  00000-0 -53454-4 0  9992
2 23001  82.5714  38.6352 0008419 115.8510   3.1561 12.62931207473907
Epoch: 2026-02-04T12:02Z
TLE epoch observation values (Epoch: 2026-02-04T12:02:10.127Z)
Latitude
60.22°
Longitude
-109.67844°
Altitude
1,414.527 km
Speed
7.162 km/s
True Right ascension
13h 42m 07s
True Declination
60° 05' 03"
Sunlit
Object was in daylight at epoch
Visualization orbit readout
Latitude
Unknown
Longitude
Unknown
Altitude
Unknown
Speed
Unknown
Apparent Right ascension
Unknown
Apparent Declination
Unknown
Sunlit
N/A
Visualization observer readout
Local Sidereal Time
23:28:08
Azimuth
Unknown
Elevation
Unknown
Doppler factor
Unknown
Orbital elements
Apogee altitude
1,414.745 km
Perigee altitude
1,401.634 km
Semi-major axis
7,786.326 km
Eccentricity
0.00084
Inclination
82.5714°
RAAN
38.6352°
Arg. of periapsis
115.851°
True anomaly
3.16142°
Mean anomaly
3.1561°
Eccentric anomaly
3.15876°
Mean motion
3.15896 °/min
Orbital period
113.96 mins
BSTAR
-0.000053454
Loading maneuver chart data...
Computing Atmospheric mass density...
Loading historical data...
Loading historical data...
Loading historical data...
Loading historical data...
Loading historical data...
Loading historical data...
Loading historical data...

Documentation

Showing up to 5 results
|